When you browse on this site, cookies collect data to enhance your experience and personalize the content and advertising you see.
Visit our Privacy Policy to learn more. By continuing to use the site, you agree to this use of cookies and data.
  • în România
  • Lista ţărilor
  • Pe 7 zile
  • Temperatura apei
  • Hartă satelitară
  • Meteo pe hartă
  • Widget-uri
  • user-avatar
    Intrare

    Meteo pe oră la MarcqenBaroeul

    Astăzi, 19 Aprilie, Vineri

    Timp Temperatura Precipitaţii Vânt Presiune Umiditate
    00:00 +13°C° 0 mm 3 m/s 766 mmHg 68%
    01:00 +12°C° 0 mm 3 m/s 766 mmHg 70%
    02:00 +12°C° 0 mm 3 m/s 766 mmHg 72%
    03:00 +13°C° 0 mm 2 m/s 766 mmHg 74%
    04:00 +13°C° 0 mm 2 m/s 766 mmHg 75%
    05:00 +13°C° 0 mm 2 m/s 767 mmHg 75%
    06:00 +13°C° 0 mm 2 m/s 767 mmHg 76%
    07:00 +14°C° 0 mm 3 m/s 767 mmHg 71%
    08:00 +17°C° 0 mm 3 m/s 767 mmHg 66%
    09:00 +18°C° 0 mm 3 m/s 767 mmHg 61%
    10:00 +20°C° 0 mm 4 m/s 767 mmHg 56%
    11:00 +21°C° 0 mm 4 m/s 768 mmHg 51%
    12:00 +23°C° 0 mm 4 m/s 768 mmHg 45%
    13:00 +23°C° 0 mm 4 m/s 768 mmHg 44%
    14:00 +25°C° 0 mm 4 m/s 768 mmHg 43%
    15:00 +25°C° 0 mm 3 m/s 767 mmHg 42%
    16:00 +24°C° 0 mm 3 m/s 768 mmHg 47%
    17:00 +21°C° 0 mm 3 m/s 768 mmHg 53%
    18:00 +20°C° 0 mm 3 m/s 768 mmHg 58%
    19:00 +19°C° 0 mm 3 m/s 768 mmHg 59%
    20:00 +17°C° 0 mm 3 m/s 769 mmHg 60%
    21:00 +16°C° 0 mm 3 m/s 769 mmHg 61%
    22:00 +16°C° 0 mm 3 m/s 769 mmHg 62%
    23:00 +14°C° 0 mm 3 m/s 769 mmHg 64%

    Mâine, 20 Aprilie, Sâmbătă

    Timp Temperatura Precipitaţii Vânt Presiune Umiditate
    00:00 +15°C° 0 mm 2 m/s 769 mmHg 65%
    01:00 +14°C° 0 mm 2 m/s 769 mmHg 66%
    02:00 +13°C° 0 mm 2 m/s 769 mmHg 66%
    03:00 +13°C° 0 mm 2 m/s 769 mmHg 67%
    04:00 +13°C° 0 mm 2 m/s 769 mmHg 67%
    05:00 +13°C° 0 mm 2 m/s 769 mmHg 68%
    06:00 +13°C° 0 mm 2 m/s 769 mmHg 69%
    07:00 +14°C° 0 mm 3 m/s 769 mmHg 66%
    08:00 +17°C° 0 mm 3 m/s 769 mmHg 64%
    09:00 +19°C° 0 mm 4 m/s 769 mmHg 62%
    10:00 +20°C° 0 mm 4 m/s 769 mmHg 56%
    11:00 +22°C° 0 mm 4 m/s 769 mmHg 51%
    12:00 +23°C° 0 mm 5 m/s 769 mmHg 45%
    13:00 +23°C° 0 mm 4 m/s 768 mmHg 44%
    14:00 +25°C° 0 mm 4 m/s 768 mmHg 44%
    15:00 +25°C° 0 mm 4 m/s 768 mmHg 43%
    16:00 +22°C° 0 mm 4 m/s 768 mmHg 48%
    17:00 +21°C° 0 mm 3 m/s 767 mmHg 53%
    18:00 +20°C° 0 mm 3 m/s 767 mmHg 57%
    19:00 +19°C° 0 mm 3 m/s 768 mmHg 58%
    20:00 +17°C° 0 mm 3 m/s 768 mmHg 59%
    21:00 +16°C° 0 mm 3 m/s 768 mmHg 60%
    22:00 +16°C° 0 mm 3 m/s 768 mmHg 63%
    23:00 +14°C° 0 mm 3 m/s 767 mmHg 66%

    Poimâine, 21 Aprilie, Duminică

    Timp Temperatura Precipitaţii Vânt Presiune Umiditate
    00:00 +13°C° 0 mm 3 m/s 767 mmHg 69%
    01:00 +13°C° 0 mm 3 m/s 767 mmHg 72%
    02:00 +13°C° 0 mm 2 m/s 766 mmHg 75%
    03:00 +12°C° 0 mm 2 m/s 766 mmHg 77%
    04:00 +12°C° 0 mm 2 m/s 766 mmHg 78%
    05:00 +12°C° 0 mm 2 m/s 766 mmHg 78%
    06:00 +13°C° 0 mm 2 m/s 765 mmHg 78%
    07:00 +15°C° 0 mm 2 m/s 765 mmHg 72%
    08:00 +17°C° 0 mm 2 m/s 765 mmHg 66%
    09:00 +19°C° 0 mm 2 m/s 764 mmHg 60%
    10:00 +20°C° 0 mm 3 m/s 764 mmHg 55%
    11:00 +21°C° 0 mm 3 m/s 764 mmHg 50%
    12:00 +24°C° 0 mm 3 m/s 763 mmHg 46%
    13:00 +24°C° 0 mm 3 m/s 763 mmHg 45%
    14:00 +24°C° 0 mm 3 m/s 762 mmHg 44%
    15:00 +24°C° 0 mm 3 m/s 761 mmHg 44%
    16:00 +22°C° 0 mm 3 m/s 761 mmHg 48%
    17:00 +21°C° 0 mm 3 m/s 761 mmHg 52%
    18:00 +20°C° 0 mm 3 m/s 760 mmHg 56%
    19:00 +19°C° 0 mm 2 m/s 760 mmHg 57%
    20:00 +17°C° 0 mm 2 m/s 760 mmHg 58%
    21:00 +16°C° 0 mm 2 m/s 760 mmHg 60%
    22:00 +15°C° 0 mm 2 m/s 760 mmHg 61%
    23:00 +14°C° 0 mm 2 m/s 759 mmHg 63%

    22 Aprilie, Luni

    Timp Temperatura Precipitaţii Vânt Presiune Umiditate
    00:00 +14°C° 0 mm 2 m/s 759 mmHg 64%
    01:00 +13°C° 0 mm 2 m/s 758 mmHg 67%
    02:00 +13°C° 0 mm 2 m/s 758 mmHg 69%
    03:00 +12°C° 0 mm 2 m/s 757 mmHg 71%
    04:00 +13°C° 0 mm 2 m/s 756 mmHg 71%
    05:00 +13°C° 0 mm 2 m/s 756 mmHg 72%
    06:00 +13°C° 0 mm 2 m/s 756 mmHg 72%
    07:00 +14°C° 0 mm 3 m/s 755 mmHg 67%
    08:00 +17°C° 0 mm 3 m/s 755 mmHg 62%
    09:00 +19°C° 0 mm 3 m/s 754 mmHg 57%
    10:00 +20°C° 0 mm 4 m/s 754 mmHg 53%
    11:00 +21°C° 0 mm 4 m/s 753 mmHg 48%
    12:00 +22°C° 0 mm 5 m/s 753 mmHg 44%
    13:00 +23°C° 0 mm 5 m/s 752 mmHg 44%
    14:00 +23°C° 0 mm 5 m/s 751 mmHg 44%
    15:00 +23°C° 0 mm 5 m/s 750 mmHg 44%
    16:00 +22°C° 0 mm 4 m/s 750 mmHg 48%
    17:00 +21°C° 0 mm 4 m/s 750 mmHg 53%
    18:00 +20°C° 0 mm 4 m/s 749 mmHg 58%
    19:00 +19°C° 0 mm 4 m/s 749 mmHg 59%
    20:00 +17°C° 0 mm 4 m/s 749 mmHg 60%
    21:00 +15°C° 0 mm 4 m/s 749 mmHg 61%
    22:00 +14°C° 0 mm 4 m/s 749 mmHg 63%
    23:00 +14°C° 0 mm 4 m/s 749 mmHg 65%

    23 Aprilie, Marţi

    Timp Temperatura Precipitaţii Vânt Presiune Umiditate
    00:00 +13°C° 0 mm 4 m/s 749 mmHg 66%
    01:00 +12°C° 0 mm 4 m/s 748 mmHg 67%
    02:00 +11°C° 0 mm 4 m/s 748 mmHg 67%
    03:00 +11°C° 0 mm 4 m/s 748 mmHg 67%
    04:00 +11°C° 0 mm 4 m/s 748 mmHg 69%
    05:00 +10°C° 0 mm 3 m/s 748 mmHg 70%
    06:00 +10°C° 0 mm 3 m/s 747 mmHg 72%
    07:00 +12°C° 0 mm 3 m/s 747 mmHg 69%
    08:00 +13°C° 0 mm 3 m/s 747 mmHg 66%
    09:00 +16°C° 0 mm 3 m/s 747 mmHg 63%
    10:00 +17°C° 0 mm 3 m/s 747 mmHg 58%
    11:00 +19°C° 0 mm 3 m/s 747 mmHg 54%
    12:00 +20°C° 0 mm 3 m/s 747 mmHg 49%
    13:00 +20°C° 0 mm 2 m/s 747 mmHg 47%
    14:00 +21°C° 0 mm 2 m/s 747 mmHg 45%
    15:00 +22°C° 0 mm 1 m/s 746 mmHg 44%
    16:00 +21°C° 0 mm 1 m/s 747 mmHg 48%
    17:00 +19°C° 0 mm 2 m/s 747 mmHg 53%
    18:00 +18°C° 0 mm 2 m/s 747 mmHg 57%
    19:00 +17°C° 0 mm 2 m/s 747 mmHg 59%
    20:00 +16°C° 0 mm 2 m/s 748 mmHg 61%
    21:00 +15°C° 0 mm 2 m/s 748 mmHg 63%
    22:00 +15°C° 0 mm 2 m/s 748 mmHg 64%
    23:00 +14°C° 0 mm 2 m/s 748 mmHg 65%

    24 Aprilie, Miercuri

    Timp Temperatura Precipitaţii Vânt Presiune Umiditate
    00:00 +14°C° 0 mm 2 m/s 749 mmHg 66%
    01:00 +14°C° 0 mm 2 m/s 749 mmHg 71%
    02:00 +14°C° 0 mm 2 m/s 749 mmHg 75%
    03:00 +14°C° 0 mm 2 m/s 749 mmHg 80%
    04:00 +13°C° 0 mm 3 m/s 749 mmHg 82%
    05:00 +13°C° 0 mm 3 m/s 749 mmHg 84%
    06:00 +14°C° 0 mm 3 m/s 750 mmHg 86%
    07:00 +15°C° 0 mm 4 m/s 750 mmHg 81%
    08:00 +17°C° 0 mm 5 m/s 751 mmHg 75%
    09:00 +20°C° 0 mm 6 m/s 751 mmHg 69%
    10:00 +20°C° 0 mm 6 m/s 751 mmHg 64%
    11:00 +21°C° 0 mm 6 m/s 752 mmHg 59%
    12:00 +22°C° 0 mm 7 m/s 752 mmHg 54%
    13:00 +21°C° 0 mm 6 m/s 752 mmHg 55%
    14:00 +21°C° 0 mm 6 m/s 753 mmHg 56%
    15:00 +21°C° 0 mm 5 m/s 753 mmHg 57%
    16:00 +20°C° 0.4 mm 5 m/s 753 mmHg 64%
    17:00 +19°C° 0.4 mm 4 m/s 753 mmHg 70%
    18:00 +17°C° 0.4 mm 4 m/s 753 mmHg 76%
    19:00 +17°C° 0 mm 3 m/s 753 mmHg 79%
    20:00 +16°C° 0 mm 2 m/s 754 mmHg 81%
    21:00 +16°C° 0 mm 1 m/s 754 mmHg 83%
    22:00 +16°C° 0.3 mm 2 m/s 754 mmHg 84%
    23:00 +16°C° 0.3 mm 3 m/s 753 mmHg 85%
    Arată mai mult